Regional Weather Roundup
Issued by NWS

Home | Current Version | Previous Version | Graphics & Text | Print | Product List | Glossary Off
Versions: 1 2 3 4 5 6 7 8 9 10 11 12 13 14 15 16 17 18 19 20 21 22 23 24 25 26 27 28 29 30 31 32 33 34 35 36 37 38 39 40 41 42 43 44 45 46 47 48 49 50

000
ASUS43 KDMX 280103
RWRIA

WEATHER ROUNDUP FOR IOWA
NATIONAL WEATHER SERVICE DES MOINES IA
800 PM CDT WED JUL 27 2016

NOTE: "FAIR" INDICATES FEW OR NO CLOUDS BELOW 12,000 FEET WITH NO
SIGNIFICANT WEATHER AND/OR OBSTRUCTIONS TO VISIBILITY.

* - THESE STATIONS ARE NOT NWS STATIONS...THUS NOT UNDER NWS
QUALITY CONTROL.  THEY ALSO DO NOT REPORT WEATHER SUCH
AS PRECIPITATION OR FOG.

IAZ001>003-012>014-020>022-031>034-043>046-280200-
   NORTHWEST IOWA

CITY           SKY/WX    TMP DP  RH WIND       PRES   REMARKS
CARROLL *      CLEAR     79  70  73 W5        29.94R HX  81
CHEROKEE *     CLEAR     80  70  72 N9G17     29.95R HX  82
DENISON *      CLEAR     79  70  73 CALM      29.93S HX  81
LE MARS *      CLEAR     81  70  69 N7        29.97R HX  84
SHELDON *      CLEAR     77  68  73 N8        29.97S
SIOUX CITY     CLEAR     81  68  64 NW5       29.94R HX  84
SPENCER        CLEAR     79  65  62 N10       29.97R HX  81
STORM LAKE *   PTCLDY    79  72  78 N3        29.96R HX  82
$$

IAZ055>058-069>071-079>083-090>094-280200-
   SOUTHWEST IOWA

CITY           SKY/WX    TMP DP  RH WIND       PRES   REMARKS
ATLANTIC *     CLEAR     79  70  73 NW3       29.94R HX  81
CLARINDA *       N/A     81  75  83 MISG      29.94R HX  86
COUNCIL BLFS * CLEAR     81  72  74 N3        29.94R HX  84
CRESTON *      CLEAR     79  72  78 CALM      29.95R HX  82
HARLAN  *      CLEAR     77  72  83 CALM      29.97S
LAMONI         PTCLDY    81  73  76 CALM      29.92S HX  86
RED OAK *      CLEAR     79  72  78 N5        29.93R HX  82
SHENANDOAH *   CLEAR     81  75  83 NE5       29.93R HX  86
$$

IAZ047>049-059>061-072>074-084-280200-
   CENTRAL IOWA

CITY           SKY/WX    TMP DP  RH WIND       PRES   REMARKS
AMES           PTCLDY    80  73  79 CALM      29.93R HX  84
ANKENY *         N/A    N/A N/A N/A MISG        N/A
BOONE *        CLEAR     79  70  73 W5        29.93R HX  81
CHARITON *       N/A    N/A N/A N/A MISG        N/A
DES MOINES     PTCLDY    83  67  58 CALM      29.91R HX  85
GRINNELL*      PTCLDY    78  69  75 CALM      29.94R
KNOXVILLE *    PTCLDY    81  68  65 CALM      29.91R HX  83
MARSHALLTOWN   CLEAR     80  69  69 CALM      29.93R HX  83
NEWTON *       CLEAR     79  72  78 CALM      29.92R HX  82
PELLA *        CLOUDY    80  72  75 CALM      29.93R HX  84
PERRY *          N/A     79  75  87 CALM      29.93R HX  82
$$

IAZ004>006-015-016-023>025-035-036-280200-
   NORTH CENTRAL IOWA

CITY           SKY/WX    TMP DP  RH WIND       PRES   REMARKS
ALGONA *       CLOUDY    79  70  73 N9        29.95R HX  81
ESTHERVILLE    CLEAR     76  66  71 N9        29.96R
FORT DODGE *   PTCLDY    79  70  73 SW3       29.94R HX  81
MASON CITY     TSTM      68  66  93 NW6       29.96R VSB 1
FOREST CITY *  CLOUDY    72  70  94 NE3       29.95S
IOWA FALLS *     N/A     79  70  73 CALM      29.95R HX  81
$$

IAZ007>011-017>019-026>030-037>042-050>054-066-280200-
   NORTHEAST IOWA

CITY           SKY/WX    TMP DP  RH WIND       PRES   REMARKS
CEDAR RAPIDS   MOCLDY    79  73  82 N5        29.92R HX  82
CHARLES CITY * CLOUDY    73  73 100 CALM      29.94F
CLINTON *      PTCLDY    78  71  79 W3        29.92R HX  80
DECORAH *      MOCLDY    73  70  88 CALM      29.92F
DUBUQUE        PTCLDY    78  69  73 N5        29.95R HX  80
MONTICELLO *   CLOUDY    79  73  83 N3        29.92S HX  82
OELWEIN *      PTCLDY    75  70  83 NW5       29.95R
WATERLOO       CLEAR     76  67  73 W3        29.93R
$$

IAZ064-065-067-068-078-280200-
   EAST CENTRAL IOWA

CITY           SKY/WX    TMP DP  RH WIND       PRES   REMARKS
DAVENPORT      PTCLDY    76  72  87 CALM      29.92R
IOWA CITY      MOCLDY    82  69  64 N9        29.92R HX  85
MT. PLEASANT * CLEAR     82  72  72 NW3       29.91R HX  86
MUSCATINE *    CLOUDY    79  73  83 CALM      29.90R HX  82
QUAD CITIES    PTCLDY    81  73  76 CALM      29.90S HX  86
$$

IAZ062-063-075>077-085>089-095>099-280200-
   SOUTHEAST IOWA

CITY           SKY/WX    TMP DP  RH WIND       PRES   REMARKS
BURLINGTON     CLEAR     80  75  84 CALM      29.90S HAZE    HX  85
FAIRFIELD *    CLEAR     77  72  83 CALM      29.91R
KEOKUK *       CLEAR     82  73  74 CALM      29.89S HX  88
CENTERVILLE *    N/A     79  73  83 CALM      29.93S HX  82
OTTUMWA        PTCLDY    81  69  67 NE3       29.90R HX  84
WASHINGTON *   CLEAR     77  72  83 NW3       29.92R
$$

ABBREVIATIONS USED IN REMARKS
   TC - TEMPERATURES IN CELSIUS
  WCI - WIND CHILL INDEX
   HX - HEAT INDEX
  VSB - VISIBILITY
$$





USA.gov is the U.S. government's official web portal to all federal, state and local government web resources and services.